[[{"header":{"parameterUnit":"m.s-1","parameterCategory":1,"la1":30.2991,"la2":30.254,"lo1":-89.0895,"lo2":-89.0444,"dy":0.0017,"dx":0.0017,"nx":28,"ny":28,"refTime":"2025-04-07T03:00:00:Z","depth":0,"parameterNumber":2,"parameterNumberName":"U-component_of_WINDS"},"data":[0,0,0,0,0,0,0,0,0,0,0,0,0,0,0,0,0,0,0,0,0,0,0,0,0,0,0,0,0,0,0,0,0,0,0,0,0,0,0,0,0,0,0,0,0,0,0,0,0,0,0,0,0,0,0,0,0,0,-0.0448,-0.0447,0,-0.0405,-0.0405,-0.0404,-0.0376,-0.0375,-0.0375,-0.0375,-0.0332,-0.0332,-0.0331,0,0,0,0,0,0,0,0,0,0,0,0,0,-0.0504,-0.0503,-0.0448,-0.0447,-0.0447,-0.0405,-0.0405,-0.0404,-0.0376,-0.0375,-0.0375,-0.0375,-0.0333,-0.0332,-0.0331,0,0,0,0,0,0,0,0,0,0,0,0,0,-0.0472,-0.0503,-0.0448,-0.0427,-0.0425,-0.0405,-0.0405,-0.0404,-0.0376,-0.0375,-0.0375,-0.0375,-0.0333,-0.0332,-0.033,-0.0328,0,0,-0.0326,-0.0325,0,0,0,0,0,0,0,0,-0.0474,-0.047,-0.0431,-0.0429,-0.0426,-0.0395,-0.0409,-0.0378,-0.0376,-0.0394,-0.0375,-0.0375,-0.0354,-0.0351,-0.0343,-0.0326,-0.0324,-0.0326,-0.0325,-0.0324,-0.0324,0,0,0,0,0,0,0,-0.0476,-0.0472,-0.0431,-0.043,-0.0427,-0.042,-0.0415,-0.0403,-0.0376,-0.0393,-0.0391,-0.0386,-0.0352,-0.0345,-0.0342,-0.0323,-0.0326,-0.0325,-0.0324,-0.0323,-0.0301,-0.0301,0,0,0,0,0,0,-0.0482,-0.0474,-0.0432,-0.043,-0.045,-0.042,-0.0414,-0.0406,-0.0376,-0.0372,-0.0386,-0.0385,-0.0347,-0.0344,-0.0341,-0.0335,-0.0325,-0.0323,-0.0322,-0.03,-0.0301,-0.0301,0,0,0,0,0,0,-0.0483,-0.0478,-0.0434,-0.0451,-0.0445,-0.0419,-0.0409,-0.0405,-0.0397,-0.0371,-0.0367,-0.0383,-0.0347,-0.0342,-0.0331,-0.0333,-0.0323,-0.0321,-0.03,-0.03,-0.0301,-0.0324,0,0,0,0,0,0,-0.0485,-0.0479,-0.0478,-0.0451,-0.0444,-0.0425,-0.041,-0.0404,-0.0395,-0.0392,-0.0367,-0.0363,-0.0346,-0.0333,-0.0329,-0.0331,-0.032,-0.03,-0.03,-0.0301,-0.0323,-0.0325,-0.0327,0,0,0,0,0,-0.0487,-0.0487,-0.0478,-0.0473,-0.0442,-0.0425,-0.0421,-0.0402,-0.0395,-0.0394,-0.0377,-0.0364,-0.0333,-0.0332,-0.0328,-0.0329,-0.03,-0.03,-0.0301,-0.0322,-0.0325,-0.0327,0,0,0,0,0,0,-0.0515,-0.0483,-0.0473,-0.0464,-0.0447,-0.042,-0.0418,-0.0405,-0.0391,-0.0389,-0.0366,-0.036,-0.0351,-0.0339,-0.0338,-0.0324,-0.0315,-0.0315,-0.0333,-0.0335,-0.0337,-0.034,-0.0319,0,0,0,0,0,-0.0519,-0.0508,-0.0481,-0.0476,-0.0468,-0.0444,-0.0436,-0.0423,-0.0405,-0.0398,-0.038,-0.0364,-0.035,-0.0342,-0.0328,-0.0321,-0.0315,-0.032,-0.0322,-0.0323,-0.0323,-0.0318,-0.0319,-0.0303,-0.0303,-0.0303,0,0,-0.053,-0.0511,-0.0505,-0.0481,-0.0466,-0.0455,-0.0439,-0.0428,-0.0419,-0.0396,-0.0384,-0.0371,-0.035,-0.0341,-0.0336,-0.033,-0.0327,-0.0324,-0.0326,-0.0325,-0.0319,-0.032,-0.0322,-0.0303,-0.0303,-0.0303,0,0,-0.0543,-0.0528,-0.0521,-0.0507,-0.0485,-0.0469,-0.0467,-0.0442,-0.0432,-0.0419,-0.0401,-0.0391,-0.0368,-0.0354,-0.0345,-0.0351,-0.0338,-0.0347,-0.0358,-0.0353,-0.0354,-0.0355,-0.0357,-0.0358,-0.0347,-0.0347,-0.0347,0,-0.0558,-0.054,-0.0519,-0.0509,-0.0498,-0.0476,-0.0469,-0.0457,-0.0432,-0.0425,-0.0419,-0.039,-0.0375,-0.0361,-0.0362,-0.0355,-0.0352,-0.035,-0.0356,-0.0356,-0.0357,-0.0359,-0.0359,-0.0349,-0.0348,-0.0348,-0.0348,0,-0.056,-0.0548,-0.0546,-0.0521,-0.051,-0.0502,-0.0479,-0.0471,-0.0458,-0.0443,-0.0429,-0.041,-0.0392,-0.0388,-0.0375,-0.0372,-0.0369,-0.036,-0.035,-0.036,-0.0361,-0.0362,-0.035,-0.035,-0.0349,-0.0349,0,0,-0.059,-0.0553,-0.0553,-0.0541,-0.0515,-0.0505,-0.0495,-0.0477,-0.047,-0.0453,-0.0444,-0.0425,-0.0416,-0.0404,-0.039,-0.0386,-0.0391,-0.0377,-0.0376,-0.038,-0.0386,-0.0393,-0.0394,-0.0383,-0.0383,-0.0383,-0.0387,0,-0.0599,-0.058,-0.056,-0.0548,-0.0536,-0.0514,-0.0506,-0.0489,-0.0474,-0.0462,-0.0446,-0.0432,-0.0421,-0.0414,-0.0409,-0.0392,-0.0392,-0.0391,-0.0374,-0.0374,-0.038,-0.0395,-0.0402,-0.0408,-0.0388,-0.0388,-0.0388,0,-0.0606,-0.059,-0.0577,-0.0551,-0.0545,-0.0538,-0.0518,-0.0507,-0.0487,-0.0477,-0.0464,-0.0448,-0.0437,-0.0428,-0.0411,-0.0411,-0.0403,-0.0393,-0.0393,-0.0391,-0.0381,-0.0392,-0.0409,-0.041,-0.0388,-0.0388,-0.0388,0,-0.0629,-0.0603,-0.0592,-0.0582,-0.0552,-0.0547,-0.0534,-0.0514,-0.0504,-0.0487,-0.048,-0.0463,-0.0453,-0.044,-0.042,-0.0416,-0.0406,-0.0395,-0.0397,-0.0397,-0.0396,-0.0396,-0.0411,-0.0391,-0.0391,-0.0391,-0.0391,0,-0.064,-0.0633,-0.0601,-0.0594,-0.0585,-0.0562,-0.0554,-0.0539,-0.0521,-0.051,-0.0491,-0.0482,-0.0456,-0.0443,-0.0428,-0.0416,-0.0412,-0.0403,-0.0399,-0.0405,-0.0406,-0.0399,-0.0398,-0.0391,-0.0391,-0.0391,-0.0391,0,-0.0664,-0.0642,-0.0628,-0.06,-0.0593,-0.0587,-0.0563,-0.0556,-0.0539,-0.0527,-0.0522,-0.0497,-0.0481,-0.046,-0.0438,-0.0427,-0.0418,-0.0411,-0.0424,-0.0422,-0.0424,-0.0424,-0.0435,-0.0435,-0.0415,-0.0415,-0.0416,0,-0.0673,-0.0666,-0.0637,-0.0629,-0.0616,-0.0603,-0.0592,-0.0569,-0.0558,-0.0535,-0.053,-0.0512,-0.0497,-0.0473,-0.0453,-0.0436,-0.0429,-0.0434,-0.0426,-0.0432,-0.0428,-0.0429,-0.0428,-0.0436,-0.0436,-0.0436,-0.0436,0,-0.069,-0.068,-0.0665,-0.0646,-0.0633,-0.0618,-0.0601,-0.0595,-0.0569,-0.0558,-0.0541,-0.0529,-0.0506,-0.0489,-0.0469,-0.0456,-0.0442,-0.0439,-0.0438,-0.0444,-0.0452,-0.0447,-0.0429,-0.0439,-0.0439,-0.0438,-0.0438,-0.0438,-0.0706,-0.0699,-0.0678,-0.0661,-0.0646,-0.0631,-0.0622,-0.0604,-0.059,-0.0569,-0.0556,-0.054,-0.0519,-0.0491,-0.0478,-0.0465,-0.0459,-0.0459,-0.0458,-0.0458,-0.046,-0.0454,-0.0461,-0.0461,-0.0461,-0.0461,-0.0461,0,-0.0723,-0.0707,-0.0693,-0.0669,-0.0657,-0.0644,-0.0624,-0.0615,-0.06,-0.0582,-0.0567,-0.0548,-0.0531,-0.0509,-0.0491,-0.0484,-0.0477,-0.048,-0.0481,-0.0478,-0.0466,-0.0469,-0.0486,-0.0486,-0.0486,-0.0486,-0.0486,-0.0486,-0.073,-0.0717,-0.0704,-0.0683,-0.0668,-0.0651,-0.0641,-0.0627,-0.0612,-0.0591,-0.0577,-0.0562,-0.0542,-0.0522,-0.0506,-0.05,-0.0494,-0.0499,-0.0491,-0.0481,-0.0478,-0.0476,-0.0478,-0.0498,-0.0498,-0.0503,-0.0503,-0.0503]},{"header":{"parameterUnit":"m.s-1","parameterCategory":1,"la1":30.2991,"la2":30.254,"lo1":-89.0895,"lo2":-89.0444,"dy":0.0017,"dx":0.0017,"nx":28,"ny":28,"refTime":"2025-04-07T03:00:00:Z","depth":0,"parameterNumber":3,"parameterNumberName":"V-component_of_WINDS"},"data":[0,0,0,0,0,0,0,0,0,0,0,0,0,0,0,0,0,0,0,0,0,0,0,0,0,0,0,0,0,0,0,0,0,0,0,0,0,0,0,0,0,0,0,0,0,0,0,0,0,0,0,0,0,0,0,0,0,0,-3.2958,-3.2958,0,-3.299,-3.299,-3.2991,-3.3002,-3.3002,-3.3001,-3.3001,-3.3031,-3.3032,-3.3033,0,0,0,0,0,0,0,0,0,0,0,0,0,-3.2904,-3.2904,-3.2958,-3.2958,-3.2958,-3.299,-3.299,-3.2991,-3.3002,-3.3002,-3.3001,-3.3001,-3.3031,-3.3032,-3.3033,0,0,0,0,0,0,0,0,0,0,0,0,0,-3.293,-3.2905,-3.2958,-3.2968,-3.2969,-3.299,-3.299,-3.2991,-3.3002,-3.3002,-3.3001,-3.3001,-3.3031,-3.3032,-3.3033,-3.3046,0,0,-3.3038,-3.3038,0,0,0,0,0,0,0,0,-3.2929,-3.2932,-3.2966,-3.2967,-3.2969,-3.2992,-3.2982,-3.3009,-3.3002,-3.2989,-3.3001,-3.3001,-3.3018,-3.3021,-3.3027,-3.3047,-3.3048,-3.3038,-3.3039,-3.3039,-3.304,0,0,0,0,0,0,0,-3.2927,-3.2931,-3.297,-3.2966,-3.2968,-3.297,-3.2974,-3.2988,-3.3004,-3.299,-3.2991,-3.2995,-3.3019,-3.3026,-3.3028,-3.3049,-3.3038,-3.3039,-3.304,-3.304,-3.3083,-3.3083,0,0,0,0,0,0,-3.2924,-3.293,-3.2969,-3.2971,-3.2948,-3.2971,-3.2975,-3.2984,-3.3004,-3.3007,-3.2995,-3.2995,-3.3023,-3.3026,-3.3029,-3.3046,-3.3039,-3.3041,-3.3041,-3.3083,-3.3083,-3.3083,0,0,0,0,0,0,-3.2923,-3.2927,-3.2968,-3.2951,-3.2956,-3.2972,-3.2982,-3.2985,-3.2992,-3.3008,-3.3011,-3.2999,-3.3023,-3.3027,-3.3042,-3.3047,-3.3041,-3.3042,-3.3082,-3.3083,-3.3083,-3.308,0,0,0,0,0,0,-3.2921,-3.2927,-3.2932,-3.2951,-3.2957,-3.2981,-3.2983,-3.2986,-3.2995,-3.2995,-3.3012,-3.3015,-3.3023,-3.304,-3.3044,-3.3049,-3.3043,-3.3082,-3.3083,-3.3083,-3.308,-3.308,-3.3081,0,0,0,0,0,-3.2919,-3.2928,-3.2932,-3.2937,-3.2964,-3.2981,-3.2985,-3.2995,-3.2995,-3.3,-3.3011,-3.3014,-3.3046,-3.3042,-3.3046,-3.3052,-3.3082,-3.3082,-3.3083,-3.3079,-3.308,-3.3081,0,0,0,0,0,0,-3.2908,-3.2931,-3.2935,-3.2951,-3.2965,-3.2983,-3.299,-3.2995,-3.3008,-3.3008,-3.302,-3.3024,-3.3038,-3.3046,-3.3041,-3.3066,-3.3064,-3.3066,-3.306,-3.3061,-3.3061,-3.3059,-3.3045,0,0,0,0,0,-3.2907,-3.2921,-3.294,-3.2952,-3.2959,-3.2973,-3.2981,-3.2989,-3.3002,-3.3008,-3.3019,-3.3032,-3.3045,-3.3053,-3.3066,-3.3081,-3.3085,-3.3087,-3.3087,-3.3088,-3.3089,-3.31,-3.3101,-3.3086,-3.3086,-3.3086,0,0,-3.2906,-3.2921,-3.2928,-3.295,-3.2961,-3.2975,-3.2978,-3.2991,-3.3001,-3.3009,-3.3025,-3.3034,-3.3049,-3.3065,-3.3072,-3.3072,-3.3094,-3.3089,-3.3089,-3.309,-3.31,-3.3102,-3.3103,-3.3086,-3.3086,-3.3086,0,0,-3.2911,-3.2923,-3.2936,-3.2947,-3.2965,-3.2975,-3.2978,-3.2997,-3.3004,-3.302,-3.3027,-3.3039,-3.306,-3.3072,-3.308,-3.3092,-3.3096,-3.3095,-3.3098,-3.3108,-3.3109,-3.311,-3.3116,-3.3118,-3.3096,-3.3096,-3.3096,0,-3.2907,-3.2928,-3.2941,-3.2955,-3.2965,-3.2975,-3.2988,-3.2998,-3.3018,-3.3025,-3.3025,-3.3054,-3.3064,-3.3084,-3.3087,-3.3093,-3.3097,-3.3094,-3.3108,-3.311,-3.3111,-3.3116,-3.3118,-3.3096,-3.3096,-3.3096,-3.3096,0,-3.2924,-3.2938,-3.2946,-3.2968,-3.2979,-3.2992,-3.3006,-3.3016,-3.3022,-3.3032,-3.305,-3.3063,-3.308,-3.3085,-3.309,-3.3105,-3.3105,-3.3106,-3.3105,-3.3112,-3.3118,-3.312,-3.3096,-3.3096,-3.3096,-3.3096,0,0,-3.2921,-3.2952,-3.2954,-3.2965,-3.2986,-3.2998,-3.3012,-3.303,-3.3038,-3.3052,-3.3065,-3.3084,-3.3086,-3.3096,-3.3103,-3.3111,-3.3122,-3.3112,-3.3112,-3.3115,-3.3141,-3.3141,-3.3143,-3.3125,-3.3125,-3.3126,-3.3141,0,-3.293,-3.2957,-3.297,-3.2991,-3.3005,-3.3016,-3.3028,-3.3043,-3.3053,-3.3066,-3.3077,-3.3091,-3.3092,-3.3098,-3.3107,-3.3119,-3.3128,-3.3118,-3.3137,-3.3138,-3.3134,-3.3146,-3.3145,-3.3158,-3.3143,-3.3143,-3.3143,0,-3.2943,-3.296,-3.2983,-3.3005,-3.3012,-3.3023,-3.3041,-3.3054,-3.307,-3.3077,-3.3089,-3.3097,-3.3112,-3.311,-3.3132,-3.3125,-3.3134,-3.3141,-3.3141,-3.3144,-3.3141,-3.315,-3.3163,-3.3165,-3.3146,-3.3146,-3.3146,0,-3.2941,-3.2969,-3.2987,-3.2996,-3.3021,-3.3029,-3.304,-3.3057,-3.3067,-3.3083,-3.309,-3.3107,-3.3116,-3.3129,-3.3141,-3.3138,-3.3162,-3.316,-3.3169,-3.3169,-3.3174,-3.3173,-3.3189,-3.3177,-3.3177,-3.3177,-3.3177,0,-3.295,-3.2964,-3.2987,-3.2998,-3.3015,-3.3029,-3.3045,-3.3056,-3.3072,-3.3085,-3.3094,-3.3107,-3.3121,-3.3136,-3.3145,-3.3163,-3.3166,-3.3172,-3.3175,-3.3172,-3.3172,-3.3179,-3.3178,-3.3178,-3.3178,-3.3178,-3.3178,0,-3.295,-3.2966,-3.2987,-3.301,-3.3017,-3.3028,-3.3048,-3.3059,-3.307,-3.3088,-3.3092,-3.311,-3.3128,-3.3141,-3.3163,-3.3169,-3.3189,-3.319,-3.3183,-3.3185,-3.3193,-3.3193,-3.3215,-3.3219,-3.3203,-3.3203,-3.3203,0,-3.2955,-3.2967,-3.2992,-3.3003,-3.3015,-3.3031,-3.3043,-3.3058,-3.3069,-3.3091,-3.31,-3.3119,-3.3134,-3.3162,-3.3176,-3.3194,-3.3197,-3.3203,-3.3199,-3.3197,-3.3199,-3.3198,-3.32,-3.3204,-3.3204,-3.3204,-3.3204,0,-3.2963,-3.2971,-3.2988,-3.3009,-3.3023,-3.3039,-3.3056,-3.3064,-3.3082,-3.3094,-3.3114,-3.3126,-3.315,-3.3169,-3.3188,-3.3199,-3.3205,-3.3206,-3.3209,-3.3206,-3.3203,-3.3206,-3.3186,-3.3205,-3.3205,-3.3205,-3.3205,-3.3205,-3.2966,-3.2978,-3.2999,-3.3018,-3.3033,-3.3049,-3.3062,-3.3076,-3.3092,-3.3114,-3.3122,-3.3142,-3.316,-3.3187,-3.3198,-3.3214,-3.3214,-3.3218,-3.3219,-3.322,-3.3221,-3.32,-3.3217,-3.3217,-3.3217,-3.3217,-3.3217,0,-3.2976,-3.299,-3.3008,-3.3033,-3.3048,-3.3054,-3.3073,-3.3086,-3.3104,-3.3121,-3.3137,-3.316,-3.3179,-3.3196,-3.3215,-3.3225,-3.3228,-3.3229,-3.3229,-3.3232,-3.3219,-3.3215,-3.3227,-3.3227,-3.3227,-3.3227,-3.3227,-3.3227,-3.2983,-3.3004,-3.3015,-3.3043,-3.3057,-3.3079,-3.3089,-3.3104,-3.3118,-3.3144,-3.3161,-3.3172,-3.3189,-3.3211,-3.3228,-3.3233,-3.324,-3.3241,-3.3246,-3.3234,-3.3233,-3.3232,-3.3228,-3.3242,-3.3242,-3.3258,-3.3258,-3.3258]}]]